Location: ????????
(55.6189°N, 38.3031°E)
Time: 09:45:14
(UTC+00:00)

SL-16 R/B - Pass Details

Date: 01 March 2020
Orbit: 843 x 847 km, 71.0° (Epoch: 07 April)

Event Time Altitude Azimuth Distance (km) Brightness Sun altitude
Exits shadow 22:07:27 12° 57° (ENE) 2,331 4.8 -41.2°
Drops below altitude 10° 22:07:58 10° 53° (NE) 2,475 5.0 -41.2°
Sets 22:10:54 0° 40° (NE) 3,415 6.0 -41.1°
